Location: Baggettsville
(36.4767°N, 86.7303°W)
Time: 20:56:29
(UTC+00:00)

N. Korean satellite - Pass Details

Date: 17 September 2021
Orbit: 450 x 495 km, 97.3° (Epoch: 25 October)

Event Time Altitude Azimuth Distance (km) Brightness Sun altitude
Rises 10:26:48 0° 24° (NNE) 2,501 10.7 -13.6°
Reaches altitude 10° 10:29:03 10° 37° (NE) 1,629 10.0 -13.2°
Maximum altitude 10:32:05 27° 97° (E) 927 8.8 -12.6°
Drops below altitude 10° 10:35:09 10° 157° (SSE) 1,641 9.4 -12.0°
Sets 10:37:25 0° 170° (S) 2,523 10.2 -11.5°
